FW0705 Weather Reports


time (UTC)temp
F
wind
direction
speed
knots
gust
knots
rain 1hr
in
rain 24hr
in
rain mn
in
humidity
%
barometer
mb
20260506033330 42 107 0.9 3.5 0.00 0.00 0.00 75 1014.4
20260506030331 43 83 0.9 6.1 0.00 0.00 0.00 76 1014.5
20260506023330 43 80 0.9 6.1 0.00 0.00 0.00 75 1014.3
20260506020330 44 95 0.0 3.5 0.00 0.00 0.00 75 1014.4
20260506013330 44 84 0.9 2.6 0.00 0.00 0.00 73 1014.6
20260506010331 44 87 0.0 4.3 0.00 0.00 0.00 74 1014.5
20260506003330 44 217 1.7 4.3 0.00 0.00 0.00 78 1014.7
20260506001723 44 159 0.9 4.3 0.00 0.00 0.00 78 1014.7
20260505233329 44 223 0.9 4.3 0.00 0.00 0.00 79 1014.9
20260505230343 44 166 0.9 4.3 0.00 0.00 0.00 80 1014.9
20260505223330 45 46 0.9 6.1 0.00 0.00 0.00 80 1014.9
20260505220332 45 78 2.6 11.3 0.00 0.00 0.00 79 1015.0
20260505213333 46 165 0.9 7.8 0.00 0.00 0.00 79 1014.8
20260505210330 46 46 2.6 9.6 0.00 0.00 0.00 80 1014.7
20260505203329 46 121 3.5 9.6 0.00 0.00 0.00 79 1014.4
20260505201723 47 86 2.6 10.4 0.00 0.00 0.00 80 1014.5
20260505193328 48 91 0.9 7.8 0.00 0.00 0.00 80 1014.3
20260505190328 49 5 1.7 7.0 0.00 0.00 0.00 79 1014.1
20260505180322 50 78 1.7 7.8 0.00 0.00 0.00 79 1013.7
20260505174713 51 61 0.9 7.0 0.00 0.00 0.00 78 1013.8
20260505170334 52 54 0.9 3.5 0.00 0.00 0.00 74 1013.7
20260505163322 54 292 0.9 3.5 0.00 0.00 0.00 70 1013.6
20260505151710 54 355 0.9 3.5 0.00 0.00 0.00 66 1013.8
20260505140320 53 47 1.7 3.5 0.00 0.00 0.00 68 1013.8
20260505123318 53 28 1.7 7.8 0.00 0.00 0.00 66 1013.8
20260505120318 54 39 0.9 7.0 0.00 0.00 0.00 65 1013.7
20260505113318 54 47 1.7 5.2 0.00 0.00 0.00 66 1013.9
20260505110318 55 54 0.9 7.0 0.00 0.00 0.00 65 1014.0
20260505100319 55 45 1.7 8.7 0.00 0.00 0.00 64 1014.2
20260505093315 52 330 0.9 6.1 0.00 0.00 0.00 71 1014.1
20260505090316 54 0 1.7 7.0 0.00 0.00 0.00 73 1014.3
20260505084701 52 333 1.7 4.3 0.00 0.00 0.00 77 1014.3
20260505073317 48 18 0.9 3.5 0.00 0.00 0.00 88 1014.4
20260505070316 47 348 0.0 0.0 0.00 0.00 0.00 87 1014.5
20260505063317 45 302 0.0 0.0 0.00 0.00 0.00 90 1014.6
20260505060316 43 302 0.0 0.0 0.00 0.00 0.00 94 1014.6
20260505053314 39 302 0.0 0.0 0.00 0.00 0.00 95 1014.5
20260505050326 38 302 0.0 0.0 0.00 0.00 0.00 95 1014.3
20260505040313 38 302 0.0 0.0 0.00 0.00 0.00 94 1014.0
20260505034654 38 302 0.0 0.9 0.00 0.00 0.00 94 1014.1